Shirley, NY

7:48 AM EDT on June 28, 2017 (GMT -0400)
Brookhaven

Weather History for KHWV - September, 2013

Change the Weather History Date:

Tuesday, September 24, 2013

  Actual Average (KISP) Record (KISP)
Temperature  
Mean Temperature 57 °F -  
Max Temperature 69 °F 69 °F 83 °F (2009)
Min Temperature 45 °F 53 °F 41 °F (1998)
Degree Days  
Heating Degree Days 8    
Growing Degree Days 7 (Base 50)    
Moisture  
Dew Point 44 °F    
Average Humidity 66    
Maximum Humidity 86    
Minimum Humidity 40    
Precipitation  
Precipitation 0.00 in - - ()
Sea Level Pressure  
Sea Level Pressure 29.96 in    
Wind  
Wind Speed 6 mph (NW)    
Max Wind Speed 12 mph    
Max Gust Speed 17 mph    
Visibility 10 miles    
Events      
Averages and records for this station are not official NWS values.
T = Trace of Precipitation, MM = Missing Value Source: NWS Daily Summary

Daily Weather History Graph

Daily Weather History Graph

Search for Another Location

Airport or City:

Trip Planner

Search our weather history database for the weather conditions in past years. The results will help you decide how hot, cold, wet, or windy it might be!

Date:

Astronomy

Sep. 24, 2013 Rise Set
Actual Time 6:41 AM EDT 6:44 PM EDT
Civil Twilight 6:13 AM EDT 7:12 PM EDT
Nautical Twilight 5:41 AM EDT 7:44 PM EDT
Astronomical Twilight 5:09 AM EDT 8:16 PM EDT
Moon 9:58 PM EDT (9/24) 11:55 AM EDT (9/24)
Length of Visible Light 12h 58m
Length of Day
12h 03m
Waning Gibbous, 73% of the Moon is Illuminated
Sep 24
Waning Gibbous
Sep 26
Last Quarter
Oct 4
New
Oct 11
First Quarter
Oct 18
Full

Hourly Weather History & Observations

Time (EDT) Temp. Dew Point Humidity Pressure Visibility Wind Dir Wind Speed Gust Speed Precip Events Conditions
12:56 AM 53.1 °F 44.1 °F 71% 30.04 in 10.0 mi North 6.9 mph - N/A   Clear
1:56 AM 52.0 °F 43.0 °F 71% 30.05 in 10.0 mi North 8.1 mph - N/A   Clear
2:56 AM 50.0 °F 43.0 °F 77% 30.04 in 10.0 mi North 6.9 mph - N/A   Clear
3:56 AM 46.0 °F 41.0 °F 83% 30.03 in 10.0 mi Calm Calm - N/A   Clear
4:56 AM 45.0 °F 41.0 °F 86% 30.04 in 10.0 mi Calm Calm - N/A   Clear
5:56 AM 46.9 °F 42.1 °F 83% 30.04 in 10.0 mi NW 3.5 mph - N/A   Clear
6:56 AM 46.9 °F 42.1 °F 83% 30.04 in 10.0 mi NNW 10.4 mph - N/A   Clear
7:56 AM 50.0 °F 42.1 °F 74% 30.04 in 10.0 mi NNW 5.8 mph - N/A   Clear
8:56 AM 54.0 °F 42.1 °F 64% 30.02 in 10.0 mi NNW 9.2 mph - N/A   Clear
9:56 AM 57.0 °F 43.0 °F 59% 30.00 in 10.0 mi WNW 9.2 mph - N/A   Clear
10:56 AM 60.1 °F 43.0 °F 53% 29.98 in 10.0 mi NW 8.1 mph 17.3 mph N/A   Clear
11:56 AM 63.0 °F 43.0 °F 48% 29.97 in 10.0 mi NW 8.1 mph - N/A   Clear
12:56 PM 64.9 °F 41.0 °F 42% 29.94 in 10.0 mi NW 11.5 mph - N/A   Clear
1:56 PM 64.9 °F 42.1 °F 43% 29.91 in 10.0 mi WNW 8.1 mph - N/A   Clear
2:56 PM 66.9 °F 43.0 °F 42% 29.89 in 10.0 mi West 10.4 mph - N/A   Clear
3:56 PM 68.0 °F 44.1 °F 42% 29.88 in 10.0 mi NW 11.5 mph - N/A   Clear
4:56 PM 69.1 °F 44.1 °F 40% 29.88 in 10.0 mi WNW 11.5 mph - N/A   Clear
5:56 PM 68.0 °F 46.0 °F 45% 29.87 in 10.0 mi WNW 5.8 mph - N/A   Clear
6:56 PM 59.0 °F 48.9 °F 69% 29.88 in 10.0 mi Calm Calm - N/A   Clear
7:56 PM 54.0 °F 48.0 °F 80% 29.89 in 10.0 mi Calm Calm - N/A   Clear
8:56 PM 52.0 °F 46.9 °F 83% 29.91 in 10.0 mi Calm Calm - N/A   Clear
9:56 PM 51.1 °F 46.0 °F 83% 29.93 in 10.0 mi North 3.5 mph - N/A   Clear
10:56 PM 52.0 °F 46.9 °F 83% 29.94 in 10.0 mi North 3.5 mph - N/A   Clear
11:56 PM 51.1 °F 46.0 °F 83% 29.94 in 10.0 mi Calm Calm - N/A   Clear